Location: Catstown
(52.4386°N, 7.2633°W)
Time: 05:10:03
(UTC+00:00)

NOSS 2-2 (E) - Pass Details

Date: 18 September 2020
Orbit: 469 x 1737 km, 63.3° (Epoch: 19 October)

Event Time Altitude Azimuth Distance (km) Brightness Sun altitude
Rises 19:11:49 0° 186° (S) 2,498 6.6 -6.2°
Reaches altitude 10° 19:14:10 10° 170° (S) 1,637 5.5 -6.6°
Maximum altitude 19:16:56 22° 118° (ESE) 1,142 4.4 -7.0°
Drops below altitude 10° 19:19:59 10° 67° (ENE) 1,816 5.5 -7.5°
Sets 19:22:45 0° 52° (NE) 2,864 6.6 -7.9°
